31-08-2023, 00:00:06,    269,    0.0,    9.5,   0.00,   0.00, 1007.9,    0.3, -999.0
31-08-2023, 00:00:16,    272,    0.0,    9.5,   0.00,   0.00, 1007.9,    0.1, -999.0
31-08-2023, 00:00:26,    269,    0.0,    9.5,   0.00,   0.00, 1007.9,    0.3, -999.0
31-08-2023, 00:00:36,    269,    0.0,    9.5,   0.00,   0.00, 1007.9,    0.3, -999.0
31-08-2023, 00:00:46,    269,    0.0,    9.5,   0.00,   0.00, 1007.9,    0.3, -999.0
31-08-2023, 00:00:56,    269,    0.0,    9.6,   0.00,   0.00, 1007.9,    0.2, -999.0
31-08-2023, 00:01:06,    269,    0.0,    9.6,   0.00,   0.00, 1007.9,    0.2, -999.0
31-08-2023, 00:01:16,    269,    0.0,    9.6,   0.00,   0.00, 1007.9,    0.3, -999.0
31-08-2023, 00:01:26,    269,    0.0,    9.5,   0.00,   0.00, 1007.9,    0.3, -999.0
31-08-2023, 00:01:36,    270,    0.0,    9.6,   0.00,   0.00, 1007.9,    0.1, -999.0
31-08-2023, 00:01:46,    269,    0.0,    9.5,   0.00,   0.00, 1007.9,    0.2, -999.0
31-08-2023, 00:01:56,    270,    0.0,    9.5,   0.00,   0.00, 1007.9,    0.4, -999.0
31-08-2023, 00:02:06,    269,    0.0,    9.5,   0.00,   0.00, 1007.9,    0.3, -999.0
31-08-2023, 00:02:16,    269,    0.0,    9.5,   0.00,   0.00, 1007.9,    0.2, -999.0
31-08-2023, 00:02:26,    269,    0.0,    9.6,   0.00,   0.00, 1007.9,    0.3, -999.0
31-08-2023, 00:02:36,    259,    0.0,    9.5,   0.00,   0.00, 1007.9,    0.3, -999.0
31-08-2023, 00:02:46,    260,    0.0,    9.5,   0.00,   0.00, 1007.9,    0.2, -999.0
31-08-2023, 00:02:56,    259,    0.0,    9.5,   0.00,   0.00, 1007.9,    0.3, -999.0
31-08-2023, 00:03:06,    258,    0.0,    9.5,   0.00,   0.00, 1007.9,    0.2, -999.0
31-08-2023, 00:03:15,    259,    0.0,    9.5,   0.00,   0.00, 1007.9,    0.5, -999.0
31-08-2023, 00:03:26,    258,    0.0,    9.5,   0.00,   0.00, 1007.9,    0.3, -999.0
31-08-2023, 00:03:36,    258,    0.0,    9.4,   0.00,   0.00, 1007.9,    0.6, -999.0
31-08-2023, 00:03:46,    261,    0.4,    9.4,   0.00,   0.00, 1007.9,    0.5, -999.0
31-08-2023, 00:03:55,    261,    0.1,    9.5,   0.00,   0.00, 1007.9,    0.3, -999.0
31-08-2023, 00:04:06,    255,    0.7,    9.5,   0.00,   0.00, 1008.0,    0.3, -999.0
31-08-2023, 00:04:16,    275,    0.3,    9.5,   0.00,   0.00, 1007.9,    0.3, -999.0
31-08-2023, 00:04:25,    275,    0.4,    9.5,   0.00,   0.00, 1008.0,    0.3, -999.0
31-08-2023, 00:04:36,    275,    0.2,    9.5,   0.00,   0.00, 1008.0,    0.3, -999.0
31-08-2023, 00:04:46,    275,    0.6,    9.5,   0.00,   0.00, 1008.0,    0.4, -999.0
31-08-2023, 00:04:55,    273,    0.3,    9.5,   0.00,   0.00, 1008.0,    0.3, -999.0
31-08-2023, 00:05:05,    272,    0.0,    9.4,   0.00,   0.00, 1007.9,    0.3, -999.0
31-08-2023, 00:05:16,    272,    0.2,    9.5,   0.00,   0.00, 1008.0,    0.4, -999.0
31-08-2023, 00:05:25,    271,    0.1,    9.5,   0.00,   0.00, 1007.9,    0.4, -999.0
31-08-2023, 00:05:35,    270,    0.2,    9.4,   0.00,   0.00, 1008.0,    0.3, -999.0
31-08-2023, 00:05:45,    271,    0.0,    9.4,   0.00,   0.00, 1007.9,    0.4, -999.0
31-08-2023, 00:05:56,    271,    0.0,    9.4,   0.00,   0.00, 1007.9,    0.4, -999.0
31-08-2023, 00:06:05,    271,    0.0,    9.4,   0.00,   0.00, 1007.9,    0.2, -999.0
31-08-2023, 00:06:15,    271,    0.0,    9.4,   0.00,   0.00, 1007.9,    0.3, -999.0
31-08-2023, 00:06:25,    270,    0.0,    9.4,   0.00,   0.00, 1007.9,    0.4, -999.0
31-08-2023, 00:06:35,    271,    0.0,    9.4,   0.00,   0.00, 1007.9,    0.3, -999.0
31-08-2023, 00:06:45,    270,    0.3,    9.4,   0.00,   0.00, 1008.0,    0.5, -999.0
31-08-2023, 00:06:55,    269,    0.4,    9.5,   0.00,   0.00, 1008.0,    0.5, -999.0
31-08-2023, 00:07:05,    269,    0.1,    9.4,   0.00,   0.00, 1007.9,    0.1, -999.0
31-08-2023, 00:07:15,    269,    0.0,    9.3,   0.00,   0.00, 1007.9,    0.3, -999.0
31-08-2023, 00:07:25,    269,    0.0,    9.3,   0.00,   0.00, 1007.9,    0.2, -999.0
31-08-2023, 00:07:35,    269,    0.0,    9.3,   0.00,   0.00, 1007.9,    0.5, -999.0
31-08-2023, 00:07:45,    269,    0.0,    9.3,   0.00,   0.00, 1007.9,    0.4, -999.0
31-08-2023, 00:07:55,    269,    0.0,    9.4,   0.00,   0.00, 1007.9,    0.3, -999.0
31-08-2023, 00:08:05,    268,    0.2,    9.4,   0.00,   0.00, 1008.0,    0.4, -999.0
31-08-2023, 00:08:15,    268,    0.5,    9.5,   0.00,   0.00, 1008.0,    0.5, -999.0
31-08-2023, 00:08:25,    268,    0.2,    9.5,   0.00,   0.00, 1008.0,    0.4, -999.0
31-08-2023, 00:08:35,    268,    0.0,    9.3,   0.00,   0.00, 1007.9,    0.3, -999.0
31-08-2023, 00:08:45,    267,    0.1,    9.3,   0.00,   0.00, 1007.9,    0.3, -999.0
31-08-2023, 00:08:55,    267,    0.0,    9.3,   0.00,   0.00, 1007.9,    0.3, -999.0
31-08-2023, 00:09:05,    267,    1.0,    9.3,   0.00,   0.00, 1008.0,    0.4, -999.0
31-08-2023, 00:09:15,    268,    0.8,    9.4,   0.00,   0.00, 1008.0,    0.3, -999.0
31-08-2023, 00:09:25,    268,    0.6,    9.4,   0.00,   0.00, 1008.0,    0.3, -999.0
31-08-2023, 00:09:35,    268,    0.6,    9.4,   0.00,   0.00, 1008.0,    0.4, -999.0
31-08-2023, 00:09:45,    261,    1.0,    9.4,   0.00,   0.00, 1008.0,    0.3, -999.0
31-08-2023, 00:09:55,    261,    0.8,    9.4,   0.00,   0.00, 1008.0,    0.4, -999.0
31-08-2023, 00:10:05,    260,    0.4,    9.4,   0.00,   0.00, 1008.0,    0.3, -999.0
31-08-2023, 00:10:14,    260,    0.0,    9.3,   0.00,   0.00, 1007.9,    0.4, -999.0
31-08-2023, 00:10:25,    261,    0.0,    9.3,   0.00,   0.00, 1007.9,    0.3, -999.0
31-08-2023, 00:10:35,    260,    0.0,    9.2,   0.00,   0.00, 1007.9,    0.2, -999.0
31-08-2023, 00:10:45,    260,    0.5,    9.3,   0.00,   0.00, 1008.0,    0.2, -999.0
31-08-2023, 00:10:54,    261,    0.9,    9.3,   0.00,   0.00, 1008.0,    0.4, -999.0
31-08-2023, 00:11:05,    261,    0.5,    9.3,   0.00,   0.00, 1008.0,    0.4, -999.0
31-08-2023, 00:11:15,    261,    0.7,    9.3,   0.00,   0.00, 1008.0,    0.4, -999.0
31-08-2023, 00:11:24,    261,    0.0,    9.2,   0.00,   0.00, 1007.9,    0.2, -999.0
31-08-2023, 00:11:35,    261,    0.0,    9.3,   0.00,   0.00, 1007.9,    0.4, -999.0
31-08-2023, 00:11:45,    261,    0.0,    9.3,   0.00,   0.00, 1007.9,    0.3, -999.0
31-08-2023, 00:11:54,    261,    0.0,    9.3,   0.00,   0.00, 1007.9,    0.3, -999.0
31-08-2023, 00:12:04,    261,    0.0,    9.2,   0.00,   0.00, 1007.9,    0.3, -999.0
31-08-2023, 00:12:15,    261,    0.0,    9.2,   0.00,   0.00, 1007.9,    0.3, -999.0
31-08-2023, 00:12:24,    261,    0.0,    9.2,   0.00,   0.00, 1007.9,    0.2, -999.0
31-08-2023, 00:12:34,    260,    0.0,    9.2,   0.00,   0.00, 1007.9,    0.3, -999.0
31-08-2023, 00:12:44,    260,    0.0,    9.2,   0.00,   0.00, 1007.9,    0.2, -999.0
31-08-2023, 00:12:55,    260,    0.0,    9.2,   0.00,   0.00, 1007.9,    0.2, -999.0
31-08-2023, 00:13:04,    260,    0.0,    9.1,   0.00,   0.00, 1007.9,    0.4, -999.0
31-08-2023, 00:13:14,    260,    0.0,    9.2,   0.00,   0.00, 1007.9,    0.4, -999.0
31-08-2023, 00:13:24,    260,    0.0,    9.2,   0.00,   0.00, 1007.9,    0.2, -999.0
31-08-2023, 00:13:34,    260,    0.0,    9.2,   0.00,   0.00, 1007.9,    0.3, -999.0
31-08-2023, 00:13:44,    260,    0.0,    9.2,   0.00,   0.00, 1007.9,    0.3, -999.0
31-08-2023, 00:13:54,    260,    0.0,    9.1,   0.00,   0.00, 1007.9,    0.4, -999.0
31-08-2023, 00:14:04,    260,    0.0,    9.2,   0.00,   0.00, 1007.9,    0.4, -999.0
31-08-2023, 00:14:14,    261,    0.0,    9.2,   0.00,   0.00, 1007.9,    0.2, -999.0
31-08-2023, 00:14:24,    260,    0.0,    9.1,   0.00,   0.00, 1007.9,    0.3, -999.0
31-08-2023, 00:14:34,    260,    0.0,    9.2,   0.00,   0.00, 1007.9,    0.3, -999.0
31-08-2023, 00:14:44,    260,    0.0,    9.2,   0.00,   0.00, 1007.9,    0.6, -999.0
31-08-2023, 00:14:54,    260,    0.0,    9.2,   0.00,   0.00, 1007.9,    0.3, -999.0
31-08-2023, 00:15:04,    259,    0.0,    9.2,   0.00,   0.00, 1007.9,    0.4, -999.0
31-08-2023, 00:15:14,    260,    0.0,    9.2,   0.00,   0.00, 1007.9,    0.2, -999.0
31-08-2023, 00:15:24,    260,    0.0,    9.2,   0.00,   0.00, 1007.9,    0.3, -999.0
31-08-2023, 00:15:34,    260,    0.0,    9.1,   0.00,   0.00, 1007.9,    0.2, -999.0
31-08-2023, 00:15:44,    260,    0.0,    9.1,   0.00,   0.00, 1007.9,    0.2, -999.0
31-08-2023, 00:15:54,    260,    0.0,    9.2,   0.00,   0.00, 1007.9,    0.3, -999.0
31-08-2023, 00:16:04,    260,    0.0,    9.2,   0.00,   0.00, 1007.9,    0.2, -999.0
31-08-2023, 00:16:14,    260,    0.0,    9.2,   0.00,   0.00, 1007.9,    0.3, -999.0
31-08-2023, 00:16:24,    260,    0.0,    9.1,   0.00,   0.00, 1007.9,    0.5, -999.0
31-08-2023, 00:16:34,    260,    0.0,    9.2,   0.00,   0.00, 1007.9,    0.4, -999.0
31-08-2023, 00:16:44,    260,    0.0,    9.2,   0.00,   0.00, 1007.9,    0.3, -999.0
31-08-2023, 00:16:54,    260,    0.0,    9.1,   0.00,   0.00, 1007.9,    0.2, -999.0
31-08-2023, 00:17:04,    260,    0.0,    9.2,   0.00,   0.00, 1007.9,    0.1, -999.0
31-08-2023, 00:17:14,    260,    0.0,    9.2,   0.00,   0.00, 1007.9,    0.5, -999.0
31-08-2023, 00:17:24,    260,    0.0,    9.2,   0.00,   0.00, 1007.9,    0.3, -999.0
31-08-2023, 00:17:34,    260,    0.0,    9.2,   0.00,   0.00, 1007.9,    0.2, -999.0
31-08-2023, 00:17:44,    260,    0.0,    9.2,   0.00,   0.00, 1007.8,    0.4, -999.0
31-08-2023, 00:17:53,    260,    0.0,    9.2,   0.00,   0.00, 1007.9,    0.4, -999.0
31-08-2023, 00:18:04,    259,    0.0,    9.2,   0.00,   0.00, 1007.9,    0.3, -999.0
31-08-2023, 00:18:14,    260,    0.0,    9.2,   0.00,   0.00, 1007.9,    0.4, -999.0
31-08-2023, 00:18:24,    260,    0.0,    9.2,   0.00,   0.00, 1007.9,    0.2, -999.0
31-08-2023, 00:18:33,    260,    0.0,    9.2,   0.00,   0.00, 1007.9,    0.2, -999.0
31-08-2023, 00:18:44,    260,    0.0,    9.2,   0.00,   0.00, 1007.9,    0.3, -999.0
31-08-2023, 00:18:54,    260,    0.0,    9.2,   0.00,   0.00, 1007.9,    0.4, -999.0
31-08-2023, 00:19:03,    260,    0.0,    9.1,   0.00,   0.00, 1007.9,    0.2, -999.0
31-08-2023, 00:19:13,    260,    0.0,    9.2,   0.00,   0.00, 1007.9,    0.5, -999.0
31-08-2023, 00:19:24,    260,    0.0,    9.2,   0.00,   0.00, 1007.9,    0.4, -999.0
31-08-2023, 00:19:33,    259,    0.0,    9.2,   0.00,   0.00, 1007.9,    0.3, -999.0
31-08-2023, 00:19:43,    260,    0.0,    9.2,   0.00,   0.00, 1007.9,    0.2, -999.0
31-08-2023, 00:19:53,    260,    0.0,    9.2,   0.00,   0.00, 1007.9,    0.3, -999.0
31-08-2023, 00:20:04,    259,    0.0,    9.2,   0.00,   0.00, 1007.9,    0.3, -999.0
31-08-2023, 00:20:13,    260,    0.0,    9.2,   0.00,   0.00, 1007.9,    0.3, -999.0
31-08-2023, 00:20:23,    260,    0.0,    9.2,   0.00,   0.00, 1007.9,    0.4, -999.0
31-08-2023, 00:20:33,    260,    0.0,    9.2,   0.00,   0.00, 1007.9,    0.2, -999.0
31-08-2023, 00:20:43,    260,    0.0,    9.2,   0.00,   0.00, 1007.9,    0.3, -999.0
31-08-2023, 00:20:53,    260,    0.0,    9.2,   0.00,   0.00, 1007.9,    0.4, -999.0
31-08-2023, 00:21:03,    261,    0.0,    9.1,   0.00,   0.00, 1007.9,    0.3, -999.0
31-08-2023, 00:21:13,    260,    0.0,    9.2,   0.00,   0.00, 1007.9,    0.3, -999.0
31-08-2023, 00:21:23,    259,    0.0,    9.2,   0.00,   0.00, 1007.9,    0.4, -999.0
31-08-2023, 00:21:33,    260,    0.0,    9.2,   0.00,   0.00, 1007.9,    0.5, -999.0
31-08-2023, 00:21:43,    260,    0.0,    9.1,   0.00,   0.00, 1007.9,    0.2, -999.0
31-08-2023, 00:21:53,    260,    0.0,    9.2,   0.00,   0.00, 1007.9,    0.2, -999.0
31-08-2023, 00:22:03,    260,    0.0,    9.2,   0.00,   0.00, 1007.9,    0.4, -999.0
31-08-2023, 00:22:13,    260,    0.0,    9.2,   0.00,   0.00, 1007.9,    0.2, -999.0
31-08-2023, 00:22:23,    260,    0.0,    9.2,   0.00,   0.00, 1007.9,    0.3, -999.0
31-08-2023, 00:22:33,    260,    0.0,    9.2,   0.00,   0.00, 1007.9,    0.3, -999.0
31-08-2023, 00:22:43,    259,    0.0,    9.1,   0.00,   0.00, 1007.9,    0.4, -999.0
31-08-2023, 00:22:53,    260,    0.0,    9.1,   0.00,   0.00, 1007.9,    0.3, -999.0
31-08-2023, 00:23:03,    260,    0.0,    9.1,   0.00,   0.00, 1007.9,    0.4, -999.0
31-08-2023, 00:23:13,    260,    0.0,    9.1,   0.00,   0.00, 1007.9,    0.3, -999.0
31-08-2023, 00:23:23,    260,    0.0,    9.2,   0.00,   0.00, 1007.9,    0.2, -999.0
31-08-2023, 00:23:33,    260,    0.0,    9.1,   0.00,   0.00, 1007.9,    0.1, -999.0
31-08-2023, 00:23:43,    259,    0.0,    9.1,   0.00,   0.00, 1007.9,    0.4, -999.0
31-08-2023, 00:23:53,    260,    0.0,    9.2,   0.00,   0.00, 1007.9,    0.3, -999.0
31-08-2023, 00:24:03,    260,    0.0,    9.2,   0.00,   0.00, 1007.9,    0.5, -999.0
31-08-2023, 00:24:13,    260,    0.0,    9.1,   0.00,   0.00, 1007.9,    0.2, -999.0
31-08-2023, 00:24:23,    259,    0.0,    9.2,   0.00,   0.00, 1007.9,    0.3, -999.0
31-08-2023, 00:24:33,    260,    0.0,    9.2,   0.00,   0.00, 1007.9,    0.4, -999.0
31-08-2023, 00:24:43,    260,    0.0,    9.2,   0.00,   0.00, 1007.9,    0.2, -999.0
31-08-2023, 00:24:53,    260,    0.0,    9.2,   0.00,   0.00, 1007.9,    0.3, -999.0
31-08-2023, 00:25:02,    260,    0.0,    9.3,   0.00,   0.00, 1007.9,    0.3, -999.0
31-08-2023, 00:25:13,    260,    0.0,    9.3,   0.00,   0.00, 1007.9,    0.5, -999.0
31-08-2023, 00:25:23,    260,    0.0,    9.3,   0.00,   0.00, 1007.9,    0.4, -999.0
31-08-2023, 00:25:32,    260,    0.0,    9.3,   0.00,   0.00, 1007.8,    0.3, -999.0
31-08-2023, 00:25:42,    260,    0.0,    9.3,   0.00,   0.00, 1007.8,    0.3, -999.0
31-08-2023, 00:25:53,    260,    0.0,    9.3,   0.00,   0.00, 1007.9,    0.4, -999.0
31-08-2023, 00:26:02,    259,    0.0,    9.3,   0.00,   0.00, 1007.9,    0.3, -999.0
31-08-2023, 00:26:12,    261,    0.0,    9.3,   0.00,   0.00, 1007.8,    0.2, -999.0
31-08-2023, 00:26:23,    260,    0.0,    9.3,   0.00,   0.00, 1007.9,    0.1, -999.0
31-08-2023, 00:26:33,    260,    0.0,    9.2,   0.00,   0.00, 1007.9,    0.4, -999.0
31-08-2023, 00:26:42,    260,    0.0,    9.2,   0.00,   0.00, 1007.9,    0.4, -999.0
31-08-2023, 00:26:52,    260,    0.0,    9.3,   0.00,   0.00, 1007.9,    0.4, -999.0
31-08-2023, 00:27:03,    260,    0.0,    9.2,   0.00,   0.00, 1007.9,    0.2, -999.0
31-08-2023, 00:27:12,    260,    0.0,    9.2,   0.00,   0.00, 1007.9,    0.5, -999.0
31-08-2023, 00:27:22,    260,    0.0,    9.1,   0.00,   0.00, 1007.9,    0.3, -999.0
31-08-2023, 00:27:32,    260,    0.0,    9.2,   0.00,   0.00, 1007.9,    0.3, -999.0
31-08-2023, 00:27:42,    259,    0.0,    9.2,   0.00,   0.00, 1007.8,    0.4, -999.0
31-08-2023, 00:27:52,    260,    0.0,    9.2,   0.00,   0.00, 1007.9,    0.2, -999.0
31-08-2023, 00:28:02,    260,    0.0,    9.2,   0.00,   0.00, 1007.9,    0.3, -999.0
31-08-2023, 00:28:12,    260,    0.0,    9.1,   0.00,   0.00, 1007.9,    0.5, -999.0
31-08-2023, 00:28:22,    260,    0.0,    9.2,   0.00,   0.00, 1007.8,    0.3, -999.0
31-08-2023, 00:28:32,    260,    0.0,    9.2,   0.00,   0.00, 1007.9,    0.3, -999.0
31-08-2023, 00:28:42,    260,    0.0,    9.2,   0.00,   0.00, 1007.9,    0.3, -999.0
31-08-2023, 00:28:52,    260,    0.0,    9.2,   0.00,   0.00, 1007.9,    0.2, -999.0
31-08-2023, 00:29:02,    260,    0.0,    9.1,   0.00,   0.00, 1007.9,    0.2, -999.0
31-08-2023, 00:29:12,    260,    0.0,    9.1,   0.00,   0.00, 1007.9,    0.4, -999.0
31-08-2023, 00:29:22,    260,    0.0,    9.1,   0.00,   0.00, 1007.9,    0.3, -999.0
31-08-2023, 00:29:32,    260,    0.0,    9.1,   0.00,   0.00, 1007.9,    0.1, -999.0
31-08-2023, 00:29:42,    260,    0.0,    9.1,   0.00,   0.00, 1007.8,    0.1, -999.0
31-08-2023, 00:29:52,    259,    0.0,    9.1,   0.00,   0.00, 1007.9,    0.4, -999.0
31-08-2023, 00:30:02,    259,    0.0,    9.1,   0.00,   0.00, 1007.9,    0.2, -999.0
31-08-2023, 00:30:12,    260,    0.0,    9.1,   0.00,   0.00, 1007.8,    0.2, -999.0
31-08-2023, 00:30:22,    260,    0.0,    9.1,   0.00,   0.00, 1007.8,    0.4, -999.0
31-08-2023, 00:30:32,    260,    0.0,    9.1,   0.00,   0.00, 1007.8,    0.3, -999.0
31-08-2023, 00:30:42,    259,    0.0,    9.1,   0.00,   0.00, 1007.9,    0.4, -999.0
31-08-2023, 00:30:52,    260,    0.0,    9.1,   0.00,   0.00, 1007.9,    0.2, -999.0
31-08-2023, 00:31:02,    259,    0.0,    9.1,   0.00,   0.00, 1007.9,    0.4, -999.0
31-08-2023, 00:31:12,    260,    0.0,    9.0,   0.00,   0.00, 1007.9,    0.3, -999.0
31-08-2023, 00:31:22,    259,    0.0,    9.1,   0.00,   0.00, 1007.9,    0.3, -999.0
31-08-2023, 00:31:32,    259,    0.0,    9.1,   0.00,   0.00, 1007.9,    0.3, -999.0
31-08-2023, 00:31:42,    260,    0.0,    9.1,   0.00,   0.00, 1007.9,    0.2, -999.0
31-08-2023, 00:31:52,    260,    0.0,    9.1,   0.00,   0.00, 1007.9,    0.3, -999.0
31-08-2023, 00:32:01,    260,    0.0,    9.1,   0.00,   0.00, 1007.9,    0.3, -999.0
31-08-2023, 00:32:12,    260,    0.0,    9.1,   0.00,   0.00, 1007.9,    0.2, -999.0
31-08-2023, 00:32:22,    260,    0.0,    9.1,   0.00,   0.00, 1007.9,    0.3, -999.0
31-08-2023, 00:32:32,    259,    0.0,    9.1,   0.00,   0.00, 1007.9,    0.4, -999.0
31-08-2023, 00:32:41,    260,    0.0,    9.1,   0.00,   0.00, 1007.9,    0.2, -999.0
31-08-2023, 00:32:52,    260,    0.0,    9.0,   0.00,   0.00, 1007.9,    0.3, -999.0
31-08-2023, 00:33:02,    260,    0.0,    9.1,   0.00,   0.00, 1007.9,    0.3, -999.0
31-08-2023, 00:33:11,    260,    0.0,    9.1,   0.00,   0.00, 1007.9,    0.3, -999.0
31-08-2023, 00:33:21,    259,    0.0,    9.1,   0.00,   0.00, 1007.9,    0.2, -999.0
31-08-2023, 00:33:32,    260,    0.0,    9.1,   0.00,   0.00, 1007.9,    0.2, -999.0
31-08-2023, 00:33:41,    260,    0.0,    9.0,   0.00,   0.00, 1007.9,    0.3, -999.0
31-08-2023, 00:33:51,    260,    0.0,    9.1,   0.00,   0.00, 1007.9,    0.3, -999.0
31-08-2023, 00:34:01,    260,    0.0,    9.0,   0.00,   0.00, 1007.9,    0.2, -999.0
31-08-2023, 00:34:12,    259,    0.0,    9.1,   0.00,   0.00, 1007.9,    0.4, -999.0
31-08-2023, 00:34:21,    259,    0.0,    9.0,   0.00,   0.00, 1007.9,    0.4, -999.0
31-08-2023, 00:34:31,    260,    0.0,    9.0,   0.00,   0.00, 1007.9,    0.2, -999.0
31-08-2023, 00:34:41,    260,    0.0,    9.1,   0.00,   0.00, 1007.9,    0.3, -999.0
31-08-2023, 00:34:51,    260,    0.0,    9.0,   0.00,   0.00, 1007.9,    0.2, -999.0
31-08-2023, 00:35:01,    260,    0.0,    9.1,   0.00,   0.00, 1007.9,    0.2, -999.0
31-08-2023, 00:35:11,    260,    0.0,    9.1,   0.00,   0.00, 1007.9,    0.2, -999.0
31-08-2023, 00:35:21,    260,    0.0,    9.1,   0.00,   0.00, 1007.9,    0.3, -999.0
31-08-2023, 00:35:31,    259,    0.0,    9.1,   0.00,   0.00, 1007.9,    0.3, -999.0
31-08-2023, 00:35:41,    258,    0.0,    9.1,   0.00,   0.00, 1007.9,    0.4, -999.0
31-08-2023, 00:35:51,    259,    0.0,    9.1,   0.00,   0.00, 1007.8,    0.3, -999.0
31-08-2023, 00:36:01,    258,    0.0,    9.1,   0.00,   0.00, 1007.9,    0.3, -999.0
31-08-2023, 00:36:11,    259,    0.0,    9.1,   0.00,   0.00, 1007.8,    0.3, -999.0
31-08-2023, 00:36:21,    258,    0.0,    9.1,   0.00,   0.00, 1007.8,    0.3, -999.0
31-08-2023, 00:36:31,    258,    0.0,    9.1,   0.00,   0.00, 1007.9,    0.2, -999.0
31-08-2023, 00:36:41,    259,    0.0,    9.0,   0.00,   0.00, 1007.8,    0.3, -999.0
31-08-2023, 00:36:51,    259,    0.0,    9.1,   0.00,   0.00, 1007.8,    0.2, -999.0
31-08-2023, 00:37:01,    258,    0.0,    9.1,   0.00,   0.00, 1007.8,    0.3, -999.0
31-08-2023, 00:37:11,    259,    0.0,    9.0,   0.00,   0.00, 1007.8,    0.2, -999.0
31-08-2023, 00:37:21,    259,    0.0,    9.1,   0.00,   0.00, 1007.8,    0.3, -999.0
31-08-2023, 00:37:31,    259,    0.0,    9.1,   0.00,   0.00, 1007.9,    0.2, -999.0
31-08-2023, 00:37:41,    259,    0.0,    9.1,   0.00,   0.00, 1007.9,    0.3, -999.0
31-08-2023, 00:37:51,    259,    0.0,    9.1,   0.00,   0.00, 1007.8,    0.2, -999.0
31-08-2023, 00:38:01,    258,    0.0,    9.1,   0.00,   0.00, 1007.8,    0.3, -999.0
31-08-2023, 00:38:11,    258,    0.0,    9.1,   0.00,   0.00, 1007.8,    0.3, -999.0
31-08-2023, 00:38:21,    259,    0.0,    9.1,   0.00,   0.00, 1007.8,    0.4, -999.0
31-08-2023, 00:38:31,    259,    0.0,    9.0,   0.00,   0.00, 1007.8,    0.3, -999.0
31-08-2023, 00:38:41,    259,    0.0,    9.1,   0.00,   0.00, 1007.8,    0.3, -999.0
31-08-2023, 00:38:51,    258,    0.0,    9.0,   0.00,   0.00, 1007.8,    0.2, -999.0
31-08-2023, 00:39:01,    258,    0.0,    9.1,   0.00,   0.00, 1007.8,    0.3, -999.0
31-08-2023, 00:39:10,    259,    0.0,    9.1,   0.00,   0.00, 1007.8,    0.2, -999.0
31-08-2023, 00:39:21,    259,    0.0,    9.1,   0.00,   0.00, 1007.8,    0.2, -999.0
31-08-2023, 00:39:31,    258,    0.0,    9.1,   0.00,   0.00, 1007.8,    0.2, -999.0
31-08-2023, 00:39:40,    258,    0.0,    9.0,   0.00,   0.00, 1007.8,    0.1, -999.0
31-08-2023, 00:39:51,    258,    0.0,    9.0,   0.00,   0.00, 1007.8,    0.2, -999.0
31-08-2023, 00:40:01,    258,    0.0,    9.1,   0.00,   0.00, 1007.8,    0.3, -999.0
31-08-2023, 00:40:11,    259,    0.0,    9.0,   0.00,   0.00, 1007.8,    0.3, -999.0
31-08-2023, 00:40:20,    259,    0.0,    9.0,   0.00,   0.00, 1007.8,    0.2, -999.0
31-08-2023, 00:40:31,    258,    0.0,    9.0,   0.00,   0.00, 1007.9,    0.5, -999.0
31-08-2023, 00:40:41,    258,    0.0,    9.0,   0.00,   0.00, 1007.8,    0.3, -999.0
31-08-2023, 00:40:50,    258,    0.0,    9.1,   0.00,   0.00, 1007.9,    0.2, -999.0
31-08-2023, 00:41:00,    258,    0.0,    9.1,   0.00,   0.00, 1007.8,    0.3, -999.0
31-08-2023, 00:41:11,    258,    0.0,    9.0,   0.00,   0.00, 1007.9,    0.3, -999.0
31-08-2023, 00:41:20,    259,    0.0,    9.0,   0.00,   0.00, 1007.9,    0.4, -999.0
31-08-2023, 00:41:30,    259,    0.0,    9.1,   0.00,   0.00, 1007.9,    0.3, -999.0
31-08-2023, 00:41:40,    258,    0.0,    9.1,   0.00,   0.00, 1007.8,    0.0, -999.0
31-08-2023, 00:41:50,    259,    0.0,    9.1,   0.00,   0.00, 1007.8,    0.7, -999.0
31-08-2023, 00:42:00,    258,    0.0,    9.1,   0.00,   0.00, 1007.9,    0.5, -999.0
31-08-2023, 00:42:10,    259,    0.0,    9.1,   0.00,   0.00, 1007.8,    0.1, -999.0
31-08-2023, 00:42:20,    258,    0.0,    9.0,   0.00,   0.00, 1007.9,    0.3, -999.0
31-08-2023, 00:42:30,    258,    0.0,    9.0,   0.00,   0.00, 1007.8,    0.3, -999.0
31-08-2023, 00:42:40,    258,    0.0,    9.1,   0.00,   0.00, 1007.8,    0.3, -999.0
31-08-2023, 00:42:50,    259,    0.0,    9.0,   0.00,   0.00, 1007.8,    0.2, -999.0
31-08-2023, 00:43:00,    259,    0.0,    9.0,   0.00,   0.00, 1007.8,    0.3, -999.0
31-08-2023, 00:43:10,    259,    0.0,    9.0,   0.00,   0.00, 1007.8,    0.2, -999.0
31-08-2023, 00:43:20,    259,    0.0,    9.0,   0.00,   0.00, 1007.8,    0.3, -999.0
31-08-2023, 00:43:30,    258,    0.0,    9.0,   0.00,   0.00, 1007.8,    0.3, -999.0
31-08-2023, 00:43:40,    259,    0.0,    9.0,   0.00,   0.00, 1007.8,    0.3, -999.0
31-08-2023, 00:43:50,    259,    0.0,    9.0,   0.00,   0.00, 1007.8,    0.3, -999.0
31-08-2023, 00:44:00,    259,    0.0,    9.0,   0.00,   0.00, 1007.8,    0.4, -999.0
31-08-2023, 00:44:10,    259,    0.0,    9.0,   0.00,   0.00, 1007.8,    0.2, -999.0
31-08-2023, 00:44:20,    259,    0.0,    9.1,   0.00,   0.00, 1007.7,    0.3, -999.0
31-08-2023, 00:44:30,    259,    0.0,    9.0,   0.00,   0.00, 1007.8,    0.2, -999.0
31-08-2023, 00:44:40,    259,    0.0,    9.0,   0.00,   0.00, 1007.7,    0.2, -999.0
31-08-2023, 00:44:50,    259,    0.0,    9.0,   0.00,   0.00, 1007.7,    0.3, -999.0
31-08-2023, 00:45:00,    259,    0.0,    9.0,   0.00,   0.00, 1007.7,    0.3, -999.0
31-08-2023, 00:45:10,    259,    0.0,    9.0,   0.00,   0.00, 1007.7,    0.3, -999.0
31-08-2023, 00:45:20,    258,    0.0,    9.0,   0.00,   0.00, 1007.7,    0.2, -999.0
31-08-2023, 00:45:30,    258,    0.0,    9.0,   0.00,   0.00, 1007.7,    0.2, -999.0
31-08-2023, 00:45:40,    260,    0.0,    9.0,   0.00,   0.00, 1007.7,    0.3, -999.0
31-08-2023, 00:45:50,    259,    0.0,    9.0,   0.00,   0.00, 1007.7,    0.2, -999.0
31-08-2023, 00:46:00,    258,    0.0,    9.0,   0.00,   0.00, 1007.7,    0.3, -999.0
31-08-2023, 00:46:10,    259,    0.0,    9.0,   0.00,   0.00, 1007.7,    0.3, -999.0
31-08-2023, 00:46:20,    259,    0.0,    9.0,   0.00,   0.00, 1007.7,    0.2, -999.0
31-08-2023, 00:46:30,    259,    0.0,    9.0,   0.00,   0.00, 1007.7,    0.2, -999.0
31-08-2023, 00:46:40,    259,    0.0,    9.0,   0.00,   0.00, 1007.7,    0.2, -999.0
31-08-2023, 00:46:49,    259,    0.0,    9.0,   0.00,   0.00, 1007.7,    0.3, -999.0